Location: Ergnies
(50.0854°N, 2.0375°E)
Time: 09:13:21
(UTC+00:00)

Cosmos 2154 Rocket - Pass Details

Date: 14 January 2026
Orbit: 965 x 997 km, 82.9° (Epoch: 17 February)

Event Time Altitude Azimuth Distance (km) Brightness Sun altitude
Rises 05:53:26 0° 191° (S) 3,696 7.1 -17.3°
Reaches altitude 10° 05:55:57 10° 192° (SSW) 2,748 6.4 -16.9°
Maximum altitude 06:02:16 80° 280° (W) 1,007 3.9 -16.0°
Drops below altitude 10° 06:08:36 10° 8° (N) 2,746 6.3 -15.0°
Sets 06:11:07 0° 10° (N) 3,693 7.0 -14.6°
